• In United Kingdom
  • List of Countries
  • For 7 days
  • Water Temperature
  • Satellite Maps
  • Weather Map
  • Weather Widgets
  • user-avatar
    Login

    Hourly Weather Yeghegnadzor

    Today, 20 April, Friday

    Time Temperature Precipitation Wind Pressure Humidity
    00:00 +12°C° 0.7 mm 2 mps 648 mmHg 79%
    01:00 +10°C° 0.1 mm 2 mps 647 mmHg 79%
    02:00 +10°C° 0.1 mm 2 mps 647 mmHg 80%
    03:00 +9°C° 0.1 mm 2 mps 647 mmHg 80%
    04:00 +9°C° 0 mm 2 mps 646 mmHg 80%
    05:00 +9°C° 0 mm 2 mps 646 mmHg 80%
    06:00 +9°C° 0 mm 2 mps 646 mmHg 80%
    07:00 +11°C° 0 mm 3 mps 646 mmHg 73%
    08:00 +12°C° 0 mm 3 mps 646 mmHg 67%
    09:00 +14°C° 0 mm 4 mps 646 mmHg 61%
    10:00 +15°C° 0.1 mm 4 mps 646 mmHg 57%
    11:00 +17°C° 0.1 mm 4 mps 645 mmHg 54%
    12:00 +17°C° 0.1 mm 5 mps 645 mmHg 50%
    13:00 +16°C° 0.4 mm 5 mps 645 mmHg 50%
    14:00 +16°C° 0.4 mm 5 mps 645 mmHg 50%
    15:00 +16°C° 0.4 mm 5 mps 644 mmHg 50%
    16:00 +15°C° 0.2 mm 4 mps 644 mmHg 53%
    17:00 +14°C° 0.2 mm 3 mps 644 mmHg 57%
    18:00 +14°C° 0.2 mm 2 mps 644 mmHg 61%
    19:00 +13°C° 0.5 mm 2 mps 644 mmHg 65%
    20:00 +13°C° 0.5 mm 2 mps 644 mmHg 68%
    21:00 +12°C° 0.5 mm 1 mps 644 mmHg 72%
    22:00 +12°C° 0.2 mm 1 mps 643 mmHg 73%
    23:00 +10°C° 0.2 mm 2 mps 643 mmHg 74%

    Tomorrow, 21 April, Saturday

    Time Temperature Precipitation Wind Pressure Humidity
    00:00 +10°C° 0.2 mm 2 mps 643 mmHg 76%
    01:00 +9°C° 0.3 mm 2 mps 643 mmHg 77%
    02:00 +9°C° 0.3 mm 2 mps 643 mmHg 79%
    03:00 +8°C° 0.3 mm 2 mps 643 mmHg 81%
    04:00 +8°C° 0.9 mm 2 mps 643 mmHg 81%
    05:00 +8°C° 0.9 mm 2 mps 643 mmHg 81%
    06:00 +8°C° 0.9 mm 2 mps 644 mmHg 81%
    07:00 +8°C° 1.3 mm 2 mps 644 mmHg 80%
    08:00 +8°C° 1.3 mm 3 mps 644 mmHg 79%
    09:00 +8°C° 1.3 mm 3 mps 645 mmHg 77%
    10:00 +9°C° 1.3 mm 3 mps 645 mmHg 77%
    11:00 +9°C° 1.3 mm 3 mps 645 mmHg 77%
    12:00 +9°C° 1.3 mm 2 mps 645 mmHg 77%
    13:00 +9°C° 1.4 mm 3 mps 645 mmHg 77%
    14:00 +9°C° 1.4 mm 3 mps 645 mmHg 77%
    15:00 +9°C° 1.4 mm 3 mps 645 mmHg 76%
    16:00 +9°C° 1.5 mm 2 mps 645 mmHg 78%
    17:00 +8°C° 1.5 mm 2 mps 645 mmHg 79%
    18:00 +9°C° 1.5 mm 1 mps 645 mmHg 80%
    19:00 +9°C° 0.7 mm 1 mps 646 mmHg 81%
    20:00 +7°C° 0.7 mm 2 mps 647 mmHg 82%
    21:00 +7°C° 0.7 mm 2 mps 647 mmHg 83%
    22:00 +8°C° 0.8 mm 1 mps 647 mmHg 84%
    23:00 +8°C° 0.8 mm 1 mps 647 mmHg 85%

    Day after tomorrow, 22 April, Sunday

    Time Temperature Precipitation Wind Pressure Humidity
    00:00 +7°C° 0.8 mm 1 mps 648 mmHg 85%
    01:00 +7°C° 0.9 mm 1 mps 647 mmHg 86%
    02:00 +7°C° 0.9 mm 1 mps 647 mmHg 87%
    03:00 +7°C° 0.9 mm 1 mps 647 mmHg 88%
    04:00 +7°C° 1.1 mm 1 mps 647 mmHg 88%
    05:00 +7°C° 1.1 mm 1 mps 647 mmHg 88%
    06:00 +6°C° 1.1 mm 2 mps 648 mmHg 88%
    07:00 +7°C° 1.1 mm 1 mps 648 mmHg 88%
    08:00 +7°C° 1.1 mm 1 mps 648 mmHg 87%
    09:00 +8°C° 1.1 mm 1 mps 648 mmHg 86%
    10:00 +8°C° 0.8 mm 1 mps 648 mmHg 86%
    11:00 +8°C° 0.8 mm 1 mps 648 mmHg 86%
    12:00 +9°C° 0.8 mm 1 mps 648 mmHg 85%
    13:00 +9°C° 0.2 mm 1 mps 647 mmHg 84%
    14:00 +10°C° 0.2 mm 1 mps 647 mmHg 83%
    15:00 +10°C° 0.2 mm 1 mps 647 mmHg 81%
    16:00 +10°C° 0 mm 1 mps 647 mmHg 79%
    17:00 +10°C° 0 mm 1 mps 647 mmHg 77%
    18:00 +10°C° 0 mm 1 mps 647 mmHg 74%
    19:00 +9°C° 0 mm 1 mps 647 mmHg 76%
    20:00 +8°C° 0 mm 1 mps 647 mmHg 77%
    21:00 +7°C° 0 mm 1 mps 647 mmHg 78%
    22:00 +6°C° 0 mm 1 mps 647 mmHg 79%
    23:00 +6°C° 0 mm 1 mps 647 mmHg 79%

    23 April, Monday

    Time Temperature Precipitation Wind Pressure Humidity
    00:00 +5°C° 0 mm 2 mps 647 mmHg 79%
    01:00 +4°C° 0 mm 2 mps 647 mmHg 79%
    02:00 +5°C° 0 mm 1 mps 647 mmHg 79%
    03:00 +5°C° 0 mm 1 mps 647 mmHg 79%
    04:00 +5°C° 0 mm 1 mps 647 mmHg 79%
    05:00 +5°C° 0 mm 1 mps 647 mmHg 79%
    06:00 +5°C° 0 mm 1 mps 647 mmHg 79%
    07:00 +6°C° 0 mm 2 mps 647 mmHg 79%
    08:00 +7°C° 0 mm 2 mps 647 mmHg 79%
    09:00 +8°C° 0 mm 2 mps 648 mmHg 79%
    10:00 +9°C° 0.1 mm 2 mps 648 mmHg 78%
    11:00 +9°C° 0.1 mm 2 mps 648 mmHg 76%
    12:00 +10°C° 0.1 mm 2 mps 648 mmHg 75%
    13:00 +10°C° 0.1 mm 2 mps 648 mmHg 74%
    14:00 +12°C° 0.1 mm 2 mps 648 mmHg 72%
    15:00 +12°C° 0.1 mm 2 mps 648 mmHg 71%
    16:00 +12°C° 0 mm 2 mps 648 mmHg 69%
    17:00 +12°C° 0 mm 1 mps 648 mmHg 67%
    18:00 +11°C° 0 mm 1 mps 648 mmHg 66%
    19:00 +10°C° 0 mm 1 mps 649 mmHg 67%
    20:00 +9°C° 0 mm 1 mps 649 mmHg 69%
    21:00 +8°C° 0 mm 1 mps 650 mmHg 70%
    22:00 +8°C° 0 mm 1 mps 650 mmHg 69%
    23:00 +7°C° 0 mm 1 mps 650 mmHg 68%

    24 April, Tuesday

    Time Temperature Precipitation Wind Pressure Humidity
    00:00 +7°C° 0 mm 1 mps 650 mmHg 68%
    01:00 +6°C° 0 mm 2 mps 650 mmHg 66%
    02:00 +5°C° 0 mm 2 mps 650 mmHg 65%
    03:00 +5°C° 0 mm 2 mps 650 mmHg 64%
    04:00 +5°C° 0 mm 2 mps 651 mmHg 64%
    05:00 +5°C° 0 mm 2 mps 651 mmHg 63%
    06:00 +6°C° 0 mm 2 mps 651 mmHg 63%
    07:00 +7°C° 0 mm 2 mps 652 mmHg 65%
    08:00 +9°C° 0 mm 2 mps 652 mmHg 66%
    09:00 +10°C° 0 mm 2 mps 653 mmHg 67%
    10:00 +12°C° 0 mm 2 mps 653 mmHg 65%
    11:00 +13°C° 0 mm 2 mps 653 mmHg 62%
    12:00 +14°C° 0 mm 2 mps 653 mmHg 60%
    13:00 +14°C° 0 mm 2 mps 653 mmHg 57%
    14:00 +15°C° 0 mm 2 mps 653 mmHg 55%
    15:00 +15°C° 0 mm 2 mps 653 mmHg 52%
    16:00 +15°C° 0 mm 2 mps 653 mmHg 53%
    17:00 +14°C° 0 mm 2 mps 653 mmHg 54%
    18:00 +14°C° 0 mm 2 mps 653 mmHg 54%
    19:00 +13°C° 0 mm 2 mps 653 mmHg 55%
    20:00 +12°C° 0 mm 2 mps 653 mmHg 55%
    21:00 +10°C° 0 mm 2 mps 653 mmHg 55%
    22:00 +9°C° 0 mm 2 mps 653 mmHg 56%
    23:00 +9°C° 0 mm 2 mps 653 mmHg 56%

    25 April, Wednesday

    Time Temperature Precipitation Wind Pressure Humidity
    00:00 +9°C° 0 mm 2 mps 653 mmHg 57%
    01:00 +9°C° 0 mm 2 mps 653 mmHg 58%
    02:00 +9°C° 0 mm 2 mps 653 mmHg 59%
    03:00 +8°C° 0 mm 2 mps 653 mmHg 60%
    04:00 +9°C° 0 mm 2 mps 653 mmHg 61%
    05:00 +9°C° 0 mm 2 mps 653 mmHg 61%
    06:00 +9°C° 0 mm 2 mps 653 mmHg 61%
    07:00 +12°C° 0 mm 2 mps 653 mmHg 59%
    08:00 +13°C° 0 mm 2 mps 653 mmHg 57%
    09:00 +15°C° 0 mm 2 mps 653 mmHg 55%
    10:00 +16°C° 0 mm 2 mps 653 mmHg 53%
    11:00 +16°C° 0 mm 2 mps 653 mmHg 52%
    12:00 +17°C° 0 mm 2 mps 653 mmHg 51%
    13:00 +17°C° 0 mm 2 mps 652 mmHg 51%
    14:00 +18°C° 0 mm 2 mps 652 mmHg 51%
    15:00 +18°C° 0 mm 2 mps 651 mmHg 51%
    16:00 +17°C° 0 mm 2 mps 651 mmHg 51%
    17:00 +16°C° 0 mm 2 mps 651 mmHg 52%
    18:00 +16°C° 0 mm 2 mps 651 mmHg 52%
    19:00 +15°C° 0 mm 2 mps 651 mmHg 53%
    20:00 +14°C° 0 mm 1 mps 651 mmHg 54%
    21:00 +13°C° 0 mm 1 mps 650 mmHg 55%
    22:00 +12°C° 0.1 mm 1 mps 650 mmHg 57%
    23:00 +12°C° 0.1 mm 1 mps 650 mmHg 58%
    Show more